• In Hungary
  • List of Countries
  • For 7 days
  • Water Temperature
  • Satellite Maps
  • Weather Map
  • News
  • Weather Widgets
  • user-avatar
    Login

    Hourly Weather Nivelles

    Today, 18 October, Wednesday

    Time Temperature Precipitation Wind Pressure Humidity
    00:00 +14°C° 0 mm 2 mps 751 mmHg 89%
    01:00 +14°C° 0 mm 2 mps 751 mmHg 89%
    02:00 +13°C° 0 mm 2 mps 750 mmHg 90%
    03:00 +13°C° 0 mm 2 mps 750 mmHg 90%
    04:00 +12°C° 0 mm 2 mps 750 mmHg 90%
    05:00 +12°C° 0 mm 2 mps 750 mmHg 89%
    06:00 +10°C° 0 mm 2 mps 750 mmHg 87%
    07:00 +13°C° 0 mm 2 mps 750 mmHg 82%
    08:00 +13°C° 0 mm 3 mps 749 mmHg 77%
    09:00 +16°C° 0 mm 3 mps 749 mmHg 71%
    10:00 +17°C° 0 mm 3 mps 749 mmHg 69%
    11:00 +19°C° 0 mm 3 mps 749 mmHg 67%
    12:00 +20°C° 0 mm 3 mps 749 mmHg 65%
    13:00 +20°C° 0 mm 3 mps 749 mmHg 66%
    14:00 +20°C° 0 mm 3 mps 749 mmHg 68%
    15:00 +21°C° 0 mm 2 mps 748 mmHg 70%
    16:00 +19°C° 0 mm 2 mps 748 mmHg 75%
    17:00 +18°C° 0 mm 2 mps 748 mmHg 81%
    18:00 +16°C° 0 mm 2 mps 748 mmHg 87%
    19:00 +16°C° 0 mm 2 mps 749 mmHg 87%
    20:00 +15°C° 0 mm 2 mps 749 mmHg 87%
    21:00 +14°C° 0 mm 3 mps 749 mmHg 88%
    22:00 +14°C° 0 mm 2 mps 749 mmHg 87%
    23:00 +14°C° 0 mm 2 mps 749 mmHg 87%

    Tomorrow, 19 October, Thursday

    Time Temperature Precipitation Wind Pressure Humidity
    00:00 +14°C° 0 mm 2 mps 748 mmHg 87%
    01:00 +13°C° 0 mm 2 mps 748 mmHg 87%
    02:00 +13°C° 0 mm 2 mps 748 mmHg 87%
    03:00 +12°C° 0 mm 3 mps 748 mmHg 87%
    04:00 +12°C° 0 mm 3 mps 748 mmHg 88%
    05:00 +12°C° 0 mm 3 mps 748 mmHg 88%
    06:00 +11°C° 0 mm 3 mps 747 mmHg 89%
    07:00 +13°C° 0 mm 3 mps 747 mmHg 84%
    08:00 +14°C° 0 mm 4 mps 747 mmHg 79%
    09:00 +17°C° 0 mm 4 mps 747 mmHg 74%
    10:00 +17°C° 0 mm 5 mps 747 mmHg 70%
    11:00 +20°C° 0 mm 5 mps 747 mmHg 67%
    12:00 +21°C° 0 mm 6 mps 747 mmHg 64%
    13:00 +21°C° 0 mm 5 mps 747 mmHg 64%
    14:00 +21°C° 0 mm 5 mps 746 mmHg 65%
    15:00 +21°C° 0 mm 5 mps 746 mmHg 66%
    16:00 +20°C° 0 mm 4 mps 746 mmHg 71%
    17:00 +18°C° 0 mm 4 mps 746 mmHg 75%
    18:00 +17°C° 0 mm 4 mps 746 mmHg 79%
    19:00 +17°C° 0 mm 3 mps 747 mmHg 81%
    20:00 +16°C° 0 mm 3 mps 747 mmHg 83%
    21:00 +14°C° 0 mm 3 mps 747 mmHg 85%
    22:00 +14°C° 0 mm 3 mps 747 mmHg 83%
    23:00 +14°C° 0 mm 4 mps 747 mmHg 80%

    Day after tomorrow, 20 October, Friday

    Time Temperature Precipitation Wind Pressure Humidity
    00:00 +15°C° 0 mm 4 mps 747 mmHg 78%
    01:00 +15°C° 0.5 mm 4 mps 747 mmHg 78%
    02:00 +14°C° 0.5 mm 4 mps 747 mmHg 79%
    03:00 +14°C° 0.5 mm 5 mps 747 mmHg 79%
    04:00 +14°C° 0.7 mm 4 mps 747 mmHg 81%
    05:00 +14°C° 0.7 mm 4 mps 747 mmHg 84%
    06:00 +14°C° 0.7 mm 4 mps 747 mmHg 86%
    07:00 +14°C° 0.6 mm 5 mps 748 mmHg 86%
    08:00 +14°C° 0.6 mm 5 mps 748 mmHg 86%
    09:00 +15°C° 0.6 mm 6 mps 748 mmHg 86%
    10:00 +15°C° 0.5 mm 6 mps 748 mmHg 83%
    11:00 +15°C° 0.5 mm 6 mps 748 mmHg 80%
    12:00 +16°C° 0.5 mm 6 mps 749 mmHg 78%
    13:00 +16°C° 0.1 mm 5 mps 749 mmHg 75%
    14:00 +16°C° 0.1 mm 5 mps 749 mmHg 73%
    15:00 +15°C° 0.1 mm 5 mps 749 mmHg 71%
    16:00 +15°C° 0 mm 4 mps 749 mmHg 73%
    17:00 +14°C° 0 mm 4 mps 750 mmHg 75%
    18:00 +13°C° 0 mm 4 mps 750 mmHg 77%
    19:00 +12°C° 0 mm 4 mps 750 mmHg 79%
    20:00 +11°C° 0 mm 3 mps 750 mmHg 80%
    21:00 +10°C° 0 mm 3 mps 750 mmHg 82%
    22:00 +11°C° 0 mm 4 mps 750 mmHg 81%
    23:00 +11°C° 0 mm 4 mps 750 mmHg 79%

    21 October, Saturday

    Time Temperature Precipitation Wind Pressure Humidity
    00:00 +11°C° 0 mm 4 mps 750 mmHg 77%
    01:00 +10°C° 0 mm 5 mps 749 mmHg 78%
    02:00 +10°C° 0 mm 5 mps 749 mmHg 78%
    03:00 +11°C° 0 mm 6 mps 748 mmHg 78%
    04:00 +11°C° 0.2 mm 6 mps 748 mmHg 81%
    05:00 +11°C° 0.2 mm 7 mps 748 mmHg 84%
    06:00 +11°C° 0.2 mm 7 mps 748 mmHg 87%
    07:00 +12°C° 0.5 mm 7 mps 748 mmHg 87%
    08:00 +12°C° 0.5 mm 7 mps 748 mmHg 88%
    09:00 +14°C° 0.5 mm 6 mps 748 mmHg 88%
    10:00 +14°C° 0.1 mm 6 mps 748 mmHg 83%
    11:00 +14°C° 0.1 mm 7 mps 748 mmHg 78%
    12:00 +14°C° 0.1 mm 7 mps 748 mmHg 73%
    13:00 +14°C° 0 mm 7 mps 748 mmHg 69%
    14:00 +14°C° 0 mm 7 mps 748 mmHg 66%
    15:00 +14°C° 0 mm 6 mps 748 mmHg 63%
    16:00 +13°C° 0 mm 6 mps 748 mmHg 64%
    17:00 +13°C° 0 mm 6 mps 748 mmHg 66%
    18:00 +11°C° 0 mm 6 mps 748 mmHg 67%
    19:00 +10°C° 0 mm 6 mps 748 mmHg 67%
    20:00 +10°C° 0 mm 7 mps 748 mmHg 67%
    21:00 +10°C° 0 mm 7 mps 748 mmHg 68%
    22:00 +9°C° 0 mm 7 mps 748 mmHg 70%
    23:00 +9°C° 0 mm 8 mps 748 mmHg 72%

    22 October, Sunday

    Time Temperature Precipitation Wind Pressure Humidity
    00:00 +9°C° 0 mm 8 mps 748 mmHg 74%
    01:00 +9°C° 0.3 mm 8 mps 748 mmHg 77%
    02:00 +9°C° 0.3 mm 8 mps 748 mmHg 79%
    03:00 +7°C° 0.3 mm 8 mps 748 mmHg 82%
    04:00 +8°C° 0.2 mm 7 mps 749 mmHg 82%
    05:00 +8°C° 0.2 mm 7 mps 749 mmHg 83%
    06:00 +7°C° 0.2 mm 6 mps 749 mmHg 83%
    07:00 +8°C° 0.1 mm 7 mps 750 mmHg 81%
    08:00 +8°C° 0.1 mm 7 mps 750 mmHg 79%
    09:00 +9°C° 0.1 mm 8 mps 750 mmHg 77%
    10:00 +9°C° 0.1 mm 7 mps 750 mmHg 77%
    11:00 +9°C° 0.1 mm 7 mps 751 mmHg 77%
    12:00 +10°C° 0.1 mm 7 mps 751 mmHg 77%
    13:00 +10°C° 0.1 mm 6 mps 751 mmHg 75%
    14:00 +10°C° 0.1 mm 6 mps 751 mmHg 74%
    15:00 +10°C° 0.1 mm 6 mps 751 mmHg 72%
    16:00 +10°C° 0.3 mm 5 mps 752 mmHg 76%
    17:00 +9°C° 0.3 mm 5 mps 752 mmHg 79%
    18:00 +8°C° 0.3 mm 4 mps 752 mmHg 83%
    19:00 +10°C° 0.5 mm 4 mps 753 mmHg 85%
    20:00 +9°C° 0.5 mm 5 mps 753 mmHg 86%
    21:00 +9°C° 0.5 mm 5 mps 753 mmHg 88%
    22:00 +9°C° 0.2 mm 5 mps 753 mmHg 88%
    23:00 +8°C° 0.2 mm 5 mps 753 mmHg 88%

    23 October, Monday

    Time Temperature Precipitation Wind Pressure Humidity
    00:00 +8°C° 0.2 mm 5 mps 753 mmHg 87%
    01:00 +8°C° 0 mm 4 mps 753 mmHg 88%
    02:00 +8°C° 0 mm 4 mps 754 mmHg 89%
    03:00 +8°C° 0 mm 4 mps 754 mmHg 89%
    04:00 +8°C° 0 mm 4 mps 754 mmHg 90%
    05:00 +8°C° 0 mm 4 mps 754 mmHg 90%
    06:00 +8°C° 0 mm 4 mps 754 mmHg 91%
    07:00 +10°C° 0 mm 4 mps 755 mmHg 89%
    08:00 +11°C° 0 mm 4 mps 755 mmHg 88%
    09:00 +10°C° 0 mm 5 mps 755 mmHg 86%
    10:00 +12°C° 0.1 mm 5 mps 755 mmHg 85%
    11:00 +12°C° 0.1 mm 5 mps 755 mmHg 83%
    12:00 +13°C° 0.1 mm 5 mps 755 mmHg 82%
    13:00 +13°C° 0.2 mm 4 mps 755 mmHg 84%
    14:00 +13°C° 0.2 mm 4 mps 755 mmHg 86%
    15:00 +13°C° 0.2 mm 4 mps 755 mmHg 88%
    16:00 +12°C° 0.2 mm 4 mps 755 mmHg 89%
    17:00 +12°C° 0.2 mm 3 mps 755 mmHg 91%
    18:00 +12°C° 0.2 mm 3 mps 756 mmHg 93%
    19:00 +12°C° 0.1 mm 3 mps 756 mmHg 94%
    20:00 +12°C° 0.1 mm 3 mps 756 mmHg 94%
    21:00 +12°C° 0.1 mm 3 mps 756 mmHg 94%
    22:00 +11°C° 0 mm 3 mps 756 mmHg 95%
    23:00 +11°C° 0 mm 3 mps 756 mmHg 95%
    Show more